TimeMDT,TemperatureF,Dew PointF,Humidity,Sea Level PressureIn,VisibilityMPH,Wind Direction,Wind SpeedMPH,Gust SpeedMPH,PrecipitationIn,Events,Conditions,WindDirDegrees,DateUTC
12:14 AM,53.6,51.8,94,30.01,10.0,South,5.8,-,N/A,,Scattered Clouds,170,2013-06-13 06:14:00
12:54 AM,54.0,50.0,86,29.92,10.0,Calm,Calm,-,N/A,,Clear,0,2013-06-13 06:54:00
1:18 AM,53.6,50.0,88,29.98,10.0,SE,3.5,-,N/A,,Mostly Cloudy,130,2013-06-13 07:18:00
1:36 AM,53.6,50.0,88,29.94,10.0,East,4.6,-,N/A,,Scattered Clouds,80,2013-06-13 07:36:00
1:54 AM,54.0,50.0,86,29.86,10.0,Calm,Calm,-,N/A,,Clear,0,2013-06-13 07:54:00
2:54 AM,51.1,48.9,92,29.86,10.0,SW,9.2,-,N/A,,Clear,230,2013-06-13 08:54:00
3:54 AM,48.9,46.9,93,29.86,10.0,SW,6.9,-,N/A,,Partly Cloudy,220,2013-06-13 09:54:00
4:07 AM,48.2,46.4,93,29.93,10.0,SSW,8.1,-,N/A,,Mostly Cloudy,200,2013-06-13 10:07:00
4:14 AM,50.0,48.2,94,29.93,10.0,SSW,6.9,-,N/A,,Scattered Clouds,200,2013-06-13 10:14:00
4:54 AM,48.9,46.9,93,29.85,10.0,ESE,3.5,-,N/A,,Clear,120,2013-06-13 10:54:00
5:54 AM,50.0,48.0,93,29.84,10.0,ESE,4.6,-,N/A,,Clear,120,2013-06-13 11:54:00
6:54 AM,50.0,48.9,96,29.86,10.0,Calm,Calm,-,N/A,,Clear,0,2013-06-13 12:54:00
7:54 AM,55.9,52.0,87,29.86,10.0,WSW,3.5,-,N/A,,Clear,250,2013-06-13 13:54:00
8:54 AM,54.0,51.1,90,29.91,10.0,West,12.7,-,N/A,,Clear,260,2013-06-13 14:54:00
9:04 AM,55.4,51.8,88,29.99,10.0,WSW,12.7,-,N/A,,Mostly Cloudy,250,2013-06-13 15:04:00
9:37 AM,55.4,53.6,94,29.97,10.0,West,10.4,-,0.04,Rain,Light Rain,280,2013-06-13 15:37:00
9:54 AM,57.9,55.0,90,29.84,10.0,North,11.5,-,0.04,,Mostly Cloudy,360,2013-06-13 15:54:00
10:15 AM,57.2,53.6,88,29.91,10.0,ENE,5.8,-,N/A,,Mostly Cloudy,70,2013-06-13 16:15:00
10:46 AM,60.8,53.6,77,29.93,10.0,Variable,3.5,-,N/A,,Mostly Cloudy,0,2013-06-13 16:46:00
10:54 AM,60.1,55.0,83,29.88,10.0,WNW,9.2,-,N/A,,Mostly Cloudy,300,2013-06-13 16:54:00
11:13 AM,55.4,53.6,94,29.94,10.0,NW,16.1,24.2,N/A,,Overcast,310,2013-06-13 17:13:00
11:39 AM,53.6,51.8,94,29.96,10.0,WNW,13.8,23.0,N/A,,Overcast,300,2013-06-13 17:39:00
11:54 AM,54.0,51.1,90,29.92,10.0,WNW,16.1,-,N/A,,Overcast,300,2013-06-13 17:54:00
12:54 PM,55.9,51.1,84,29.91,10.0,WNW,11.5,-,N/A,,Overcast,300,2013-06-13 18:54:00
1:23 PM,55.4,50.0,82,29.96,10.0,NW,10.4,-,N/A,,Overcast,310,2013-06-13 19:23:00
1:54 PM,55.9,51.1,84,29.92,10.0,NW,9.2,-,N/A,,Overcast,320,2013-06-13 19:54:00
2:54 PM,57.0,51.1,81,29.91,10.0,North,9.2,-,N/A,,Overcast,360,2013-06-13 20:54:00
3:54 PM,54.0,50.0,86,29.92,10.0,North,12.7,-,N/A,,Overcast,350,2013-06-13 21:54:00
4:54 PM,53.1,48.9,86,29.94,9.0,NW,10.4,19.6,0.01,Rain,Light Rain,320,2013-06-13 22:54:00
5:06 PM,53.6,50.0,88,29.96,10.0,NW,10.4,16.1,0.00,Rain,Light Rain,320,2013-06-13 23:06:00
5:34 PM,51.8,50.0,94,29.97,10.0,WNW,11.5,-,0.00,,Overcast,300,2013-06-13 23:34:00
5:54 PM,51.1,48.9,92,29.96,10.0,WNW,13.8,24.2,0.00,,Overcast,300,2013-06-13 23:54:00
6:06 PM,51.8,48.2,88,29.97,10.0,NW,12.7,20.7,0.00,Rain,Light Rain,310,2013-06-14 00:06:00
6:28 PM,51.8,48.2,88,30.03,6.0,West,10.4,-,0.02,Rain,Rain,280,2013-06-14 00:28:00
6:38 PM,50.0,48.2,94,30.04,3.0,WSW,16.1,-,0.04,Rain,Rain,250,2013-06-14 00:38:00
6:46 PM,50.0,48.2,94,30.01,1.8,WNW,6.9,-,0.09,Rain,Heavy Rain,300,2013-06-14 00:46:00
6:50 PM,50.0,48.2,94,29.99,1.5,NW,8.1,-,0.10,Rain,Rain,310,2013-06-14 00:50:00
6:54 PM,50.0,48.9,96,29.96,2.0,NNW,10.4,-,0.11,Rain,Rain,340,2013-06-14 00:54:00
7:03 PM,50.0,48.2,94,29.99,5.0,NW,5.8,-,0.01,Rain,Light Rain,320,2013-06-14 01:03:00
7:43 PM,50.0,48.2,94,29.96,10.0,WNW,8.1,-,0.02,Rain,Light Rain,300,2013-06-14 01:43:00
7:54 PM,51.1,48.9,92,29.93,10.0,WNW,4.6,-,0.02,,Overcast,290,2013-06-14 01:54:00
8:40 PM,51.8,48.2,88,29.98,10.0,West,11.5,-,N/A,,Overcast,280,2013-06-14 02:40:00
8:52 PM,51.8,50.0,94,29.99,10.0,West,9.2,-,N/A,,Overcast,280,2013-06-14 02:52:00
8:54 PM,51.1,50.0,96,29.96,10.0,West,8.1,-,N/A,,Overcast,270,2013-06-14 02:54:00
9:17 PM,51.8,48.2,88,29.97,10.0,West,5.8,-,N/A,,Overcast,280,2013-06-14 03:17:00
9:54 PM,51.1,48.9,92,29.92,10.0,WNW,4.6,-,N/A,,Overcast,300,2013-06-14 03:54:00
10:22 PM,50.0,48.2,94,30.00,10.0,SW,4.6,-,0.00,Rain,Light Rain,220,2013-06-14 04:22:00
10:54 PM,50.0,48.0,93,29.98,10.0,WSW,10.4,-,0.00,Rain,Light Rain,250,2013-06-14 04:54:00
11:54 PM,50.0,48.0,93,29.99,10.0,SSE,8.1,-,0.02,Rain,Light Rain,160,2013-06-14 05:54:00